AirNav   Everest Fuels
 
 392 users online  

01MO Highway Patrol Troop C Headquarters Heliport
Town And Country, Missouri, USA

GOING TO TOWN AND COUNTRY?


FAA INFORMATION EFFECTIVE 07 OCTOBER 2021

Location

FAA Identifier: 01MO
Lat/Long: 38-38-30.1890N 090-29-03.4330W
38-38.503150N 090-29.057217W
38.6417192,-90.4842869
(estimated)
Elevation: 575 ft. / 175 m (estimated)
Variation: 02E (1985)
From city: 2 miles W of TOWN AND COUNTRY, MO
Time zone: UTC -5 (UTC -6 during Standard Time)
Zip code: 63141

Heliport Operations

Heliport use: Private use. Permission required prior to landing
Control tower: no
ARTCC: KANSAS CITY CENTER
FSS: SAINT LOUIS FLIGHT SERVICE STATION
Attendance: CONTINUOUS
Wind indicator: yes
Segmented circle: no

Heliport Communications

UNICOM: 122.95
WX ASOS at SUS (8 nm W): 134.8 (314-890-7255)
WX ASOS at STL (8 nm NE): PHONE 314-890-4790
WX ASOS at CPS (16 nm E): PHONE 618-332-0001
WX ASOS at SET (17 nm N): 118.075 (636-250-4590)

Nearby radio navigation aids

VOR radial/distance  VOR name  Freq  Var
STLr179/13.1ST LOUIS VORTAC117.4001E
FTZr093/23.0FORISTELL VORTAC110.8005E
TOYr254/27.1TROY VORTAC116.0004E

 
NDB name  Hdg/Dist  Freq  Var  ID
EAVES127/3.622701WFZ ..-. --..
SNOOP090/13.232601WSU ... ..-
CIVIC MEMORIAL234/25.026301WCVM -.-. ...- --

Heliport Services

Airframe service: NONE
Powerplant service: NONE

Runway Information

Helipad H1

Dimensions: 75 x 75 ft. / 23 x 23 m
Surface: concrete
Latitude: 38-38.503167N
Longitude: 090-29.057167W
Elevation: 575.0 ft.
Traffic pattern: leftleft

Heliport Ownership and Management from official FAA records

Ownership: Privately-owned
Owner: CPT D E BUSCHMANN
599 SOUTH MASON ROAD
ST LOUIS, MO 63141
Phone 573-434-5500
Manager: SGT J W RHODUS
599 SOUTH MASON ROAD
ST LOUIS, MO 63141
Phone 573-340-4034

Heliport Operational Statistics

Aircraft based on the field: 1
Helicopters: 1
    

Additional Remarks

A52-H1 LGTD/MARKED-300' TWR & PATROL BLDG. SE OF PAD.
FOR CD CTC ST LOUIS APCH AT 314-890-1018.

Instrument Procedures

There are no published instrument procedures at 01MO.

Some nearby airports with instrument procedures:

1H0 - Creve Coeur Airport (5 nm N)
KSUS - Spirit of St Louis Airport (8 nm W)
KSTL - St Louis Lambert International Airport (8 nm NE)
KCPS - St Louis Downtown Airport (16 nm E)
KSET - St Charles County Smartt Airport (17 nm N)
 
Loc | Ops | Rwys | IFR | FBO | Links
Com | Nav | Svcs | Stats | Notes
Area around 01MO (Highway Patrol Troop C Headquarters Heliport)
 
Road maps at: MapQuest Bing Google
 
Aerial photo
No photo
 
Sectional chart

 
Airport distance calculator
Flying to Highway Patrol Troop C Headquarters Heliport? Find the distance to fly.

From to 01MO

Sunrise and sunset
Times for 25-Oct-2021
 Local
(UTC-5)
 Zulu
(UTC)
Morning civil twilight06:5511:55
Sunrise07:2212:22
Sunset18:1023:10
Evening civil twilight18:3723:37

Current date and time
Zulu (UTC)  25-Oct-2021 10:06:05
Local (UTC-5)  25-Oct-2021 05:06:05
 
METAR
KSUS 
8nm W 
250954Z 26016G29KT 10SM OVC026 12/06 A2976 RMK AO2 PK WND 28033/0929 SLP071 T01220061 $
KSTL 
9nm NE 
250951Z 28016G29KT 10SM OVC025 12/06 A2975 RMK AO2 PK WND 26040/0901 SLP066 T01220061
KCPS 
16nm E 
250953Z AUTO 26010G23KT 10SM OVC027 12/08 A2975 RMK AO2 PK WND 29030/0909 SLP072 T01170078 $
KSET 
18nm N 
250954Z AUTO 28019G29KT 10SM BKN024 OVC032 12/06 A2974 RMK AO2 PK WND 27037/0920 SLP066 T01220056 $
TAF
KSUS 
8nm W 
250520Z 2506/2606 27015G29KT P6SM SCT025 BKN035 TEMPO 2506/2508 BKN025 FM250800 27015G30KT P6SM BKN025 FM251000 29016G29KT P6SM BKN015 FM252100 33012G19KT P6SM BKN020 FM260100 34008KT P6SM SCT030
KSTL 
9nm NE 
250520Z 2506/2612 27015G29KT P6SM SCT025 BKN035 TEMPO 2506/2508 BKN025 FM250800 27015G30KT P6SM BKN025 FM251000 29016G29KT P6SM BKN015 FM252100 33012G19KT P6SM BKN020 FM260100 34008KT P6SM SCT030
KCPS 
16nm E 
250635Z 2507/2606 26010G19KT P6SM SCT025 BKN060 FM250900 27015G30KT P6SM BKN025 FM251100 29016G29KT P6SM BKN015 FM252100 33012G19KT P6SM BKN020 FM260100 34008KT P6SM SCT030
NOTAMs
Click for the latest NOTAMs
NOTAMs are issued by the DoD/FAA and will open in a separate window not controlled by AirNav.

 

 
 

Would you like to see your business listed on this page?

 If your business provides an interesting product or service to pilots, flight crews, aircraft, or users of the Highway Patrol Troop C Headquarters Heliport, you should consider listing it here.  To start the listing process, click on the button below
 
Add a business
 

Other Pages about Highway Patrol Troop C Headquarters Heliport

Update a link
 
Copyright © AirNav, LLC. All rights reserved. Privacy Policy  Contact